DW7269 Weather Reports


Display with metric or nautical units.
time (UTC)temp
F
wind
direction
speed
MPH
gust
MPH
rain 1hr
in
rain 24hr
in
rain mn
in
humidity
%
barometer
mb
20240301003045 65 0.0 0.0 0.00 0.00 0.00 40 1017.2
20240301001542 65 0.0 0.0 0.00 0.00 0.00 39 1017.2
20240301000041 66 0.0 0.0 0.00 0.00 0.00 38 1017.3
20240229234604 66 0.0 0.0 0.00 0.02 0.00 37 1017.2
20240229233041 66 0.0 0.0 0.00 0.02 0.00 33 1017.2
20240229231539 66 0.0 0.0 0.00 0.02 0.00 40 1017.4
20240229230038 67 0.0 0.0 0.00 0.02 0.00 37 1017.5
20240229224536 67 0.0 0.0 0.00 0.19 0.00 42 1017.7
20240229223036 66 0.0 0.0 0.00 0.19 0.00 41 1017.8
20240229221542 67 0.0 0.0 0.00 0.19 0.00 44 1018.0
20240229220034 66 0.0 0.0 0.00 0.19 0.00 44 1018.3
20240229214533 67 0.0 0.0 0.00 0.26 0.00 45 1018.2
20240229213031 66 0.0 0.0 0.00 0.26 0.00 46 1018.4
20240229211532 65 0.0 0.0 0.00 0.26 0.00 49 1018.3
20240229210028 65 0.0 0.0 0.00 0.26 0.00 48 1018.4
20240229204534 65 0.0 0.0 0.00 0.34 0.00 50 1018.6
20240229203027 65 0.0 0.0 0.00 0.34 0.00 49 1018.9
20240229201524 65 0.0 0.0 0.00 0.34 0.00 50 1019.0
20240229200030 64 0.0 0.0 0.00 0.34 0.00 50 1019.2
20240229194524 64 0.0 0.0 0.00 0.39 0.00 51 1019.3
20240229193024 63 0.0 0.0 0.00 0.39 0.00 52 1019.5
20240229191523 63 0.0 0.0 0.00 0.39 0.00 53 1019.6
20240229190017 63 0.0 0.0 0.00 0.39 0.00 54 1019.8
20240229184514 62 0.0 0.0 0.00 0.39 0.00 56 1019.9
20240229183019 62 0.0 0.0 0.00 0.39 0.00 55 1019.8
20240229181508 61 0.0 0.0 0.00 0.39 0.00 58 1019.9
20240229180003 60 0.0 0.0 0.00 0.39 0.00 60 1019.8
20240229174558 60 0.0 0.0 0.00 0.39 0.00 61 1019.7
20240229173053 59 0.0 0.0 0.00 0.39 0.00 62 1019.7
20240229171549 58 0.0 0.0 0.00 0.39 0.00 65 1019.7
20240229170045 57 0.0 0.0 0.00 0.39 0.00 66 1019.6
20240229164542 57 0.0 0.0 0.00 0.39 0.00 68 1019.7
20240229163037 56 0.0 0.0 0.00 0.39 0.00 69 1019.6
20240229161542 55 0.0 0.0 0.00 0.39 0.00 73 1019.5
20240229160028 53 0.0 0.0 0.00 0.39 0.00 76 1019.4
20240229154524 51 0.0 0.0 0.00 0.39 0.00 79 1019.1
20240229153020 50 0.0 0.0 0.00 0.39 0.00 81 1019.2
20240229151526 49 0.0 0.0 0.00 0.39 0.00 82 1019.1
20240229150018 48 0.0 0.0 0.00 0.39 0.00 86 1019.0
20240229144514 47 0.0 0.0 0.00 0.39 0.00 89 1018.8
20240229143016 46 0.0 0.0 0.00 0.39 0.00 91 1018.9
20240229141511 45 0.0 0.0 0.00 0.39 0.00 91 1018.8
20240229140016 45 0.0 0.0 0.00 0.39 0.00 91 1018.5
20240229134504 45 0.0 0.0 0.00 0.39 0.00 90 1018.4
20240229133002 45 0.0 0.0 0.00 0.39 0.00 90 1018.2
20240229131501 45 0.0 0.0 0.00 0.39 0.00 90 1018.1
20240229130101 46 0.0 0.0 0.00 0.39 0.00 88 1017.9
20240229124605 47 0.0 0.0 0.00 0.39 0.00 85 1017.8
20240229123055 47 0.0 0.0 0.00 0.39 0.00 87 1017.6
20240229121557 47 0.0 0.0 0.00 0.39 0.00 87 1017.1
20240229120048 47 0.0 0.0 0.00 0.39 0.00 87 1017.0
20240229114547 47 0.0 0.0 0.00 0.39 0.00 88 1016.9
20240229113047 47 0.0 0.0 0.00 0.39 0.00 86 1016.9
20240229111542 48 0.0 0.0 0.00 0.39 0.00 86 1016.6
20240229110042 48 0.0 0.0 0.00 0.39 0.00 87 1016.4
20240229104559 47 0.0 0.0 0.00 0.39 0.00 87 1016.3
20240229103042 48 0.0 0.0 0.00 0.39 0.00 85 1016.4
20240229101552 48 0.0 0.0 0.00 0.39 0.00 86 1016.6
20240229100037 48 0.0 0.0 0.00 0.39 0.00 87 1016.6
20240229094537 48 0.0 0.0 0.00 0.39 0.00 86 1016.5
20240229093035 49 0.0 0.0 0.00 0.39 0.00 85 1016.4
20240229091534 49 0.0 0.0 0.00 0.39 0.00 85 1016.5
20240229090038 49 0.0 0.0 0.00 0.39 0.00 86 1016.7
20240229084531 49 0.0 0.0 0.00 0.39 0.00 87 1016.7
20240229083033 50 0.0 0.0 0.00 0.39 0.00 86 1016.6
20240229081534 50 0.0 0.0 0.00 0.39 0.00 86 1016.4
20240229080032 50 0.0 0.0 0.00 0.39 0.00 85 1016.3
20240229074530 50 0.0 0.0 0.00 0.39 0.00 86 1016.3
20240229073024 50 0.0 0.0 0.00 0.39 0.00 87 1016.3
20240229071522 50 0.0 0.0 0.00 0.39 0.00 86 1016.1
20240229070022 50 0.0 0.0 0.00 0.39 0.00 86 1016.1
20240229064521 50 0.0 0.0 0.00 0.39 0.39 86 1016.0
20240229063023 50 0.0 0.0 0.00 0.39 0.39 86 1016.1
20240229061528 50 0.0 0.0 0.00 0.39 0.39 87 1015.8
20240229060032 50 0.0 0.0 0.00 0.39 0.39 89 1016.0
20240229054518 50 0.0 0.0 0.00 0.39 0.39 89 1016.1
20240229053019 50 0.0 0.0 0.00 0.39 0.39 89 1016.1
20240229051516 50 0.0 0.0 0.00 0.39 0.39 90 1016.1
20240229050028 50 0.0 0.0 0.00 0.39 0.39 90 1015.9
20240229044513 50 0.0 0.0 0.00 0.39 0.39 89 1015.6
20240229043016 50 0.0 0.0 0.00 0.39 0.39 89 1015.3
20240229041508 50 0.0 0.0 0.00 0.39 0.39 89 1015.1
20240229040029 51 0.0 0.0 0.00 0.39 0.39 89 1015.0
20240229034507 51 0.0 0.0 0.00 0.39 0.39 90 1014.8
20240229033004 51 0.0 0.0 0.00 0.39 0.39 89 1014.7
20240229031503 51 0.0 0.0 0.00 0.39 0.39 88 1014.5
20240229030104 51 0.0 0.0 0.00 0.39 0.39 88 1014.4
20240229024558 51 0.0 0.0 0.00 0.39 0.39 87 1014.1
20240229023057 51 0.0 0.0 0.00 0.39 0.39 85 1014.1
20240229021606 51 0.0 0.0 0.00 0.39 0.39 84 1013.8
20240229020055 52 0.0 0.0 0.00 0.39 0.39 84 1013.7
20240229014556 53 0.0 0.0 0.00 0.39 0.39 80 1013.4
20240229013055 54 0.0 0.0 0.00 0.39 0.39 68 1013.0
20240229011604 54 0.0 0.0 0.00 0.39 0.39 63 1012.6
20240229010055 54 0.0 0.0 0.00 0.39 0.39 66 1012.4
20240229004553 53 0.0 0.0 0.00 0.39 0.39 81 1012.4